This is the latest recevied weather packets stored in our database for station/object OK2ILA-6. If no packets are shown the sender has not sent any weather packets the latest 10 day(s).
| Time | Temp. | Humidity | Pressure | Rain* | Wind** | Luminosity | Snow |
|---|---|---|---|---|---|---|---|
| 1777702803 | 13.89° C | 66% | 1024.8 hPa | - | - | - | - |
| 1777702203 | 13.33° C | 68% | 1024.8 hPa | - | - | - | - |
| 1777701603 | 12.22° C | 70% | 1024.6 hPa | - | - | - | - |
| 1777701003 | 11.11° C | 72% | 1024.6 hPa | - | - | - | - |
| 1777700402 | 10° C | 74% | 1024.8 hPa | - | - | - | - |
| 1777699803 | 9.44° C | 77% | 1024.8 hPa | - | - | - | - |
| 1777699203 | 8.89° C | 80% | 1024.7 hPa | - | - | - | - |
| 1777698603 | 7.78° C | 82% | 1024.8 hPa | - | - | - | - |
| 1777698003 | 7.22° C | 84% | 1024.7 hPa | - | - | - | - |
| 1777697402 | 6.67° C | 84% | 1024.6 hPa | - | - | - | - |
| 1777696803 | 6.67° C | 86% | 1024.6 hPa | - | - | - | - |
| 1777696203 | 6.11° C | 86% | 1024.5 hPa | - | - | - | - |
| 1777695603 | 5.56° C | 86% | 1024.6 hPa | - | - | - | - |
| 1777695003 | 5.56° C | 86% | 1024.4 hPa | - | - | - | - |
| 1777694402 | 5.56° C | 86% | 1024.4 hPa | - | - | - | - |
| 1777693803 | 5° C | 86% | 1024.2 hPa | - | - | - | - |
| 1777693203 | 5.56° C | 86% | 1024.4 hPa | - | - | - | - |
| 1777692603 | 5.56° C | 86% | 1024.3 hPa | - | - | - | - |
| 1777692003 | 5.56° C | 86% | 1024.3 hPa | - | - | - | - |
| 1777691402 | 5.56° C | 85% | 1024.2 hPa | - | - | - | - |
| 1777690803 | 5.56° C | 85% | 1024.3 hPa | - | - | - | - |
| 1777690203 | 5.56° C | 84% | 1024.2 hPa | - | - | - | - |
| 1777689603 | 5.56° C | 85% | 1024.4 hPa | - | - | - | - |
| 1777689002 | 5.56° C | 85% | 1024.3 hPa | - | - | - | - |
| 1777688402 | 5.56° C | 85% | 1024.3 hPa | - | - | - | - |
* Rain since midnight (hover to see other rain measurements)
** Current wind speed in m/s (hover to see current wind gust speed)